CW7986 Weather Reports


Display with metric or nautical units.
time (UTC)temp
F
wind
direction
speed
MPH
gust
MPH
rain 1hr
in
rain 24hr
in
rain mn
in
humidity
%
barometer
mb
20260506001502 77 301 3.0 6.0 0.00 0.01 0.01 79 1013.3
20260506001003 77 290 4.0 7.0 0.00 0.01 0.01 79 1013.2
20260506000503 77 296 3.0 7.0 0.00 0.01 0.01 78 1013.2
20260506000003 77 297 4.0 9.0 0.00 0.01 0.01 78 1013.2
20260505235502 77 290 4.0 9.0 0.00 0.01 0.01 78 1013.2
20260505235003 77 291 4.0 7.0 0.00 0.01 0.01 78 1013.1
20260505234502 78 295 3.0 7.0 0.00 0.01 0.01 77 1013.1
20260505234024 78 291 4.0 7.0 0.00 0.01 0.01 77 1012.9
20260505233502 78 280 5.0 8.0 0.00 0.01 0.01 77 1013.0
20260505233023 78 281 6.0 10.0 0.00 0.01 0.01 77 1013.0
20260505232502 78 284 6.0 11.0 0.00 0.01 0.01 76 1013.1
20260505232002 78 283 6.0 11.0 0.00 0.01 0.01 76 1013.2
20260505231502 78 284 6.0 11.0 0.00 0.01 0.01 76 1013.2
20260505231003 78 284 6.0 11.0 0.00 0.01 0.01 76 1013.1
20260505230502 78 279 7.0 12.0 0.00 0.01 0.01 75 1012.9
20260505230002 78 277 7.0 12.0 0.00 0.01 0.01 75 1012.9
20260505225502 79 278 7.0 13.0 0.00 0.01 0.01 75 1013.1
20260505225002 79 281 7.0 13.0 0.00 0.01 0.01 75 1013.1
20260505224502 79 283 6.0 11.0 0.00 0.01 0.01 75 1013.1
20260505224002 79 285 6.0 11.0 0.00 0.01 0.01 75 1013.0
20260505223503 79 283 7.0 14.0 0.00 0.01 0.01 75 1012.8
20260505223003 79 281 7.0 14.0 0.00 0.01 0.01 74 1012.8
20260505222503 79 278 7.0 12.0 0.00 0.01 0.01 75 1012.9
20260505222002 79 273 7.0 12.0 0.00 0.01 0.01 74 1012.8
20260505221502 79 275 7.0 12.0 0.00 0.01 0.01 75 1012.9
20260505221002 79 278 6.0 12.0 0.00 0.01 0.01 74 1012.9
20260505220502 79 277 6.0 11.0 0.00 0.01 0.01 74 1012.9
20260505220002 79 275 7.0 12.0 0.00 0.01 0.01 73 1012.9
20260505215502 79 281 6.0 12.0 0.00 0.01 0.01 73 1012.8
20260505215002 80 291 6.0 11.0 0.00 0.01 0.01 73 1012.8
20260505214503 80 284 7.0 11.0 0.00 0.01 0.01 73 1012.8
20260505214002 80 283 7.0 11.0 0.00 0.01 0.01 72 1012.7
20260505213503 80 287 7.0 12.0 0.00 0.01 0.01 72 1012.7
20260505213002 80 288 7.0 12.0 0.00 0.01 0.01 72 1012.7
20260505212502 80 288 8.0 15.0 0.00 0.01 0.01 72 1012.8
20260505212002 80 280 8.0 15.0 0.00 0.01 0.01 72 1012.9
20260505211502 80 274 9.0 14.0 0.00 0.01 0.01 73 1013.0
20260505211002 80 281 8.0 14.0 0.00 0.01 0.01 72 1012.9
20260505210523 80 285 8.0 14.0 0.00 0.01 0.01 72 1012.9
20260505210023 80 275 9.0 15.0 0.00 0.01 0.01 73 1013.1
20260505205503 80 272 9.0 15.0 0.00 0.01 0.01 71 1012.9
20260505205002 81 274 9.0 14.0 0.00 0.01 0.01 72 1013.0
20260505204523 80 274 10.0 15.0 0.00 0.01 0.01 72 1013.0
20260505204023 80 278 9.0 15.0 0.00 0.01 0.01 71 1013.0
20260505203503 81 282 8.0 14.0 0.00 0.01 0.01 70 1013.0
20260505203002 82 285 8.0 13.0 0.00 0.01 0.01 70 1013.2
20260505202502 81 280 9.0 14.0 0.00 0.01 0.01 71 1013.2
20260505202003 81 279 9.0 14.0 0.00 0.01 0.01 70 1013.2
20260505201502 81 279 8.0 15.0 0.00 0.01 0.01 69 1013.2
20260505201003 82 280 8.0 15.0 0.00 0.01 0.01 70 1013.2
20260505200502 81 281 8.0 13.0 0.00 0.01 0.01 70 1013.2
20260505200003 82 273 9.0 14.0 0.00 0.01 0.01 70 1013.2
20260505195502 81 270 9.0 14.0 0.00 0.01 0.01 70 1013.2
20260505195002 82 272 8.0 14.0 0.00 0.01 0.01 70 1013.2
20260505194502 81 272 9.0 14.0 0.00 0.01 0.01 71 1013.2
20260505194023 81 271 8.0 13.0 0.00 0.01 0.01 69 1013.2
20260505193502 82 272 8.0 13.0 0.00 0.01 0.01 69 1013.2
20260505193003 81 271 8.0 12.0 0.00 0.01 0.01 69 1013.2
20260505192502 82 269 7.0 12.0 0.00 0.01 0.01 69 1013.2
20260505192002 82 272 8.0 12.0 0.00 0.01 0.01 70 1013.2
20260505191523 81 275 8.0 12.0 0.00 0.01 0.01 69 1013.3
20260505191003 82 273 6.0 12.0 0.00 0.01 0.01 68 1013.3
20260505190523 82 270 7.0 12.0 0.00 0.01 0.01 70 1013.2
20260505190003 81 269 7.0 12.0 0.00 0.01 0.01 69 1013.2
20260505185502 82 270 6.0 12.0 0.00 0.01 0.01 70 1013.3
20260505185002 82 273 7.0 12.0 0.00 0.01 0.01 69 1013.4
20260505184504 82 270 6.0 13.0 0.00 0.01 0.01 70 1013.5
20260505184023 84 263 3.0 13.0 0.00 0.01 0.01 67 1013.5
20260505183502 85 269 4.0 11.0 0.00 0.01 0.01 67 1013.6
20260505183023 83 271 6.0 11.0 0.00 0.01 0.01 69 1013.5
20260505182503 83 270 5.0 13.0 0.00 0.01 0.01 68 1013.7
20260505182002 83 270 6.0 12.0 0.00 0.01 0.01 68 1013.7
20260505181502 82 270 7.0 13.0 0.00 0.01 0.01 69 1013.7
20260505181002 82 270 6.0 13.0 0.00 0.01 0.01 69 1013.8
20260505180502 84 267 5.0 11.0 0.00 0.01 0.01 69 1013.8
20260505180003 82 268 6.0 11.0 0.00 0.01 0.01 69 1013.9
20260505175502 82 270 7.0 12.0 0.00 0.01 0.01 69 1013.9
20260505175002 82 273 6.0 12.0 0.00 0.01 0.01 70 1013.9
20260505174502 82 274 7.0 12.0 0.00 0.01 0.01 69 1014.1
20260505174002 82 272 7.0 12.0 0.00 0.01 0.01 68 1014.2
20260505173502 83 269 5.0 12.0 0.00 0.02 0.01 68 1014.2
20260505173002 82 269 6.0 12.0 0.00 0.02 0.01 69 1014.2
20260505172523 82 271 7.0 14.0 0.00 0.02 0.01 69 1014.3
20260505172023 82 272 7.0 14.0 0.00 0.02 0.01 68 1014.3
20260505171503 82 272 6.0 12.0 0.00 0.02 0.01 68 1014.3
20260505171002 83 266 4.0 12.0 0.00 0.02 0.01 69 1014.3
20260505170503 84 262 3.0 12.0 0.00 0.02 0.01 67 1014.3
20260505170002 82 270 4.0 11.0 0.00 0.02 0.01 68 1014.3
20260505165503 82 266 4.0 11.0 0.00 0.02 0.01 68 1014.3
20260505165002 84 250 2.0 6.0 0.00 0.02 0.01 66 1014.3
20260505164502 83 266 2.0 7.0 0.00 0.02 0.01 67 1014.3
20260505164003 82 268 3.0 7.0 0.00 0.02 0.01 69 1014.4
20260505163502 83 259 2.0 7.0 0.00 0.02 0.01 67 1014.4
20260505163003 84 193 2.0 5.0 0.00 0.02 0.01 64 1014.4
20260505162502 85 98 2.0 5.0 0.00 0.02 0.01 61 1014.4
20260505162023 85 95 3.0 7.0 0.00 0.02 0.01 59 1014.3
20260505161502 87 138 4.0 9.0 0.00 0.02 0.01 60 1014.3
20260505161003 86 148 4.0 9.0 0.00 0.02 0.01 61 1014.3
20260505160502 86 128 3.0 9.0 0.00 0.02 0.01 62 1014.3
20260505153002 83 90 2.0 6.0 0.00 0.02 0.01 63 1014.7
20260505152502 85 84 3.0 9.0 0.00 0.02 0.01 61 1014.7
20260505152002 86 98 4.0 9.0 0.00 0.02 0.01 62 1014.8
20260505151502 86 96 4.0 9.0 0.00 0.02 0.01 60 1014.8
20260505151023 86 92 3.0 8.0 0.00 0.02 0.01 62 1014.8
20260505150503 85 115 3.0 10.0 0.00 0.02 0.01 63 1014.8
20260505140502 81 118 5.0 13.0 0.00 0.02 0.01 69 1014.3
20260505125002 75 117 3.0 9.0 0.00 0.02 0.01 75 1014.1
20260505124502 74 113 3.0 9.0 0.00 0.02 0.01 77 1014.0
20260505124002 74 102 3.0 8.0 0.00 0.02 0.01 77 1014.1
20260505123502 73 101 3.0 8.0 0.00 0.02 0.01 78 1014.1
20260505123002 72 98 3.0 9.0 0.00 0.02 0.01 79 1014.1
20260505122502 72 92 3.0 9.0 0.00 0.02 0.01 80 1014.2
20260505122002 71 87 3.0 9.0 0.00 0.02 0.01 82 1014.2
20260505121523 71 85 3.0 7.0 0.00 0.02 0.01 84 1014.0
20260505121023 70 90 3.0 7.0 0.00 0.02 0.01 85 1013.9
20260505120502 69 91 3.0 7.0 0.00 0.02 0.01 86 1014.0
20260505120003 68 88 3.0 6.0 0.00 0.02 0.01 87 1014.0
20260505115523 68 86 2.0 5.0 0.00 0.02 0.01 87 1013.9
20260505115023 67 83 2.0 6.0 0.00 0.02 0.01 87 1013.8
20260505114523 67 88 2.0 6.0 0.00 0.02 0.01 87 1013.7
20260505114023 67 88 2.0 6.0 0.00 0.02 0.01 87 1013.6
20260505113502 66 83 2.0 5.0 0.00 0.02 0.01 87 1013.5
20260505113023 66 88 2.0 5.0 0.00 0.02 0.01 87 1013.4
20260505112502 66 81 2.0 5.0 0.00 0.02 0.01 87 1013.4
20260505112003 66 78 2.0 5.0 0.00 0.02 0.01 87 1013.4
20260505111502 66 85 2.0 4.0 0.00 0.02 0.01 87 1013.3
20260505111003 65 86 2.0 4.0 0.00 0.02 0.01 87 1013.2
20260505110502 65 78 1.0 4.0 0.00 0.02 0.01 87 1013.3
20260505102002 66 82 1.0 4.0 0.00 0.02 0.01 86 1012.8
20260505101504 66 84 1.0 4.0 0.00 0.02 0.01 86 1012.9
20260505101004 66 79 1.0 4.0 0.00 0.02 0.01 86 1012.9
20260505100502 66 78 1.0 4.0 0.00 0.02 0.01 86 1013.0
20260505100003 66 84 2.0 5.0 0.00 0.02 0.01 86 1012.8
20260505095502 66 90 2.0 5.0 0.00 0.02 0.01 86 1012.7
20260505095002 66 84 1.0 4.0 0.00 0.02 0.01 86 1012.7
20260505094503 66 82 2.0 5.0 0.00 0.02 0.01 86 1012.7
20260505094002 66 84 2.0 5.0 0.00 0.02 0.01 86 1012.6
20260505093502 66 83 2.0 4.0 0.00 0.02 0.01 86 1012.6
20260505093004 66 80 2.0 4.0 0.00 0.02 0.01 86 1012.5
20260505092503 66 69 1.0 4.0 0.00 0.02 0.01 86 1012.4
20260505092002 66 70 2.0 5.0 0.00 0.02 0.01 85 1012.5
20260505091502 66 82 2.0 5.0 0.00 0.02 0.01 85 1012.5
20260505091002 66 86 2.0 4.0 0.00 0.02 0.01 85 1012.3
20260505090503 66 83 2.0 6.0 0.00 0.02 0.01 85 1012.3
20260505090003 66 79 2.0 7.0 0.00 0.02 0.01 85 1012.4
20260505085502 66 79 3.0 7.0 0.00 0.02 0.01 85 1012.3
20260505085002 66 79 2.0 6.0 0.00 0.02 0.01 85 1012.3
20260505084503 67 78 2.0 5.0 0.00 0.02 0.01 85 1012.4
20260505084002 67 81 2.0 7.0 0.00 0.02 0.01 85 1012.3
20260505083502 67 85 2.0 7.0 0.00 0.02 0.01 85 1012.3
20260505083002 67 82 2.0 4.0 0.00 0.02 0.01 85 1012.4
20260505082502 67 78 2.0 5.0 0.00 0.02 0.01 85 1012.3
20260505082002 67 82 2.0 6.0 0.00 0.02 0.01 85 1012.4
20260505081502 67 81 2.0 6.0 0.00 0.02 0.01 85 1012.3
20260505081002 67 83 2.0 6.0 0.00 0.02 0.01 85 1012.2
20260505080502 67 86 2.0 5.0 0.00 0.02 0.01 85 1012.3
20260505080003 67 83 2.0 5.0 0.00 0.02 0.01 84 1012.3
20260505075502 67 81 2.0 4.0 0.00 0.02 0.01 84 1012.4
20260505075003 67 77 2.0 4.0 0.00 0.02 0.01 84 1012.7
20260505074502 67 76 2.0 4.0 0.00 0.02 0.01 84 1012.6
20260505074002 67 78 2.0 5.0 0.00 0.02 0.01 84 1012.7
20260505073523 68 77 2.0 5.0 0.00 0.02 0.01 84 1012.7
20260505073002 68 76 2.0 4.0 0.00 0.02 0.01 84 1012.7
20260505072502 68 71 2.0 4.0 0.00 0.02 0.01 84 1012.7
20260505072023 68 69 2.0 4.0 0.00 0.03 0.01 84 1012.7
20260505071502 68 69 2.0 4.0 0.00 0.03 0.01 83 1012.6
20260505071002 68 77 2.0 5.0 0.00 0.03 0.01 83 1012.6
20260505070502 68 80 3.0 6.0 0.00 0.03 0.01 83 1012.7
20260505070023 68 73 3.0 6.0 0.00 0.03 0.01 83 1012.7
20260505065502 68 72 2.0 6.0 0.00 0.03 0.01 83 1012.8
20260505065002 68 82 2.0 6.0 0.00 0.03 0.01 83 1012.7
20260505064502 68 84 2.0 6.0 0.00 0.03 0.01 83 1012.8
20260505064002 69 81 2.0 5.0 0.00 0.03 0.01 83 1012.7
20260505063502 69 73 2.0 4.0 0.00 0.03 0.01 83 1012.8
20260505063002 69 62 2.0 4.0 0.01 0.03 0.01 83 1013.2
20260505062502 69 57 2.0 4.0 0.01 0.03 0.01 83 1013.2
20260505062003 69 64 2.0 4.0 0.01 0.03 0.01 83 1013.3
20260505061503 69 74 2.0 4.0 0.01 0.03 0.01 82 1013.5
20260505061003 69 73 2.0 4.0 0.01 0.03 0.01 82 1013.6
20260505060502 69 74 2.0 4.0 0.01 0.03 0.01 82 1013.5
20260505060003 69 77 2.0 4.0 0.01 0.03 0.01 82 1013.6
20260505055502 69 74 2.0 5.0 0.01 0.03 0.01 82 1013.3
20260505055003 69 72 2.0 5.0 0.01 0.03 0.01 82 1013.3
20260505054502 69 72 2.0 5.0 0.01 0.03 0.01 82 1013.4
20260505054003 69 69 2.0 5.0 0.01 0.03 0.01 82 1013.3
20260505053502 69 70 2.0 4.0 0.01 0.03 0.01 82 1013.5
20260505053024 70 78 2.0 4.0 0.00 0.02 0.00 81 1013.6
20260505052502 70 92 1.0 3.0 0.00 0.02 0.00 81 1013.6
20260505052002 70 85 1.0 3.0 0.00 0.02 0.00 81 1013.6
20260505051503 70 81 1.0 3.0 0.00 0.02 0.00 81 1013.7
20260505051002 70 86 1.0 4.0 0.00 0.02 0.00 80 1013.7
20260505050502 70 85 1.0 4.0 0.00 0.02 0.00 80 1013.7
20260505041523 71 79 2.0 4.0 0.00 0.02 0.00 78 1014.2
20260505041002 72 69 1.0 4.0 0.00 0.02 0.00 78 1014.1
20260505040502 72 72 1.0 4.0 0.00 0.02 0.00 78 1014.1
20260505040005 72 81 1.0 4.0 0.00 0.02 0.00 77 1014.1
20260505035525 72 84 1.0 4.0 0.00 0.02 0.02 77 1014.2
20260505035003 72 80 1.0 4.0 0.00 0.02 0.02 76 1014.2
20260505034502 72 75 1.0 5.0 0.00 0.02 0.02 76 1014.2
20260505034002 73 78 2.0 5.0 0.00 0.02 0.02 76 1014.1
20260505033502 73 73 2.0 5.0 0.00 0.02 0.02 76 1014.1
20260505033003 73 76 2.0 5.0 0.00 0.02 0.02 75 1014.1
20260505032502 73 84 3.0 5.0 0.00 0.02 0.02 75 1014.1
20260505032002 73 89 2.0 5.0 0.00 0.02 0.02 75 1014.1
20260505031502 74 93 2.0 5.0 0.00 0.02 0.02 74 1014.2
20260505031023 74 88 2.0 6.0 0.00 0.02 0.02 74 1014.2
20260505030502 74 86 2.0 6.0 0.00 0.02 0.02 74 1014.0
20260505030023 74 90 3.0 6.0 0.00 0.02 0.02 73 1014.3
20260505025523 74 95 3.0 6.0 0.00 0.02 0.02 73 1014.2
20260505025002 74 102 3.0 10.0 0.00 0.02 0.02 73 1014.1
20260505024502 74 98 3.0 10.0 0.00 0.02 0.02 73 1014.1
20260505024002 75 91 2.0 7.0 0.00 0.02 0.02 72 1014.0
20260505023502 75 97 3.0 7.0 0.00 0.02 0.02 72 1013.9
20260505023002 75 100 3.0 9.0 0.00 0.03 0.02 72 1013.7
20260505022503 75 103 3.0 9.0 0.00 0.03 0.02 72 1013.8
20260505022003 75 105 2.0 7.0 0.00 0.03 0.02 72 1013.8
20260505021503 76 102 2.0 7.0 0.00 0.03 0.02 72 1013.9
20260505021002 76 89 2.0 7.0 0.00 0.03 0.02 72 1013.9
20260505020502 76 84 3.0 7.0 0.00 0.03 0.02 71 1013.9
20260505020002 76 86 3.0 7.0 0.00 0.03 0.02 72 1013.9
20260505015502 76 87 2.0 6.0 0.00 0.03 0.02 72 1013.8
20260505015003 76 101 3.0 11.0 0.00 0.03 0.02 71 1013.6
20260505014502 76 102 3.0 11.0 0.00 0.03 0.02 71 1013.6
20260505014002 76 92 3.0 6.0 0.00 0.03 0.02 71 1013.6
20260505013502 76 95 3.0 9.0 0.00 0.03 0.02 71 1013.5
20260505013002 76 94 3.0 9.0 0.00 0.03 0.02 71 1013.3
20260505012503 76 96 3.0 9.0 0.00 0.03 0.02 71 1013.2
20260505012003 77 108 3.0 9.0 0.00 0.03 0.02 71 1013.3
20260505011503 77 108 3.0 9.0 0.00 0.03 0.02 71 1013.3
20260505011003 77 96 3.0 9.0 0.00 0.03 0.02 71 1013.2
20260505010523 77 91 3.0 7.0 0.00 0.03 0.02 71 1013.2
20260505010024 77 91 3.0 7.0 0.00 0.03 0.02 70 1013.2
20260505005502 77 93 3.0 9.0 0.00 0.03 0.02 70 1013.1
20260505005002 78 93 3.0 9.0 0.00 0.03 0.02 70 1012.9
20260505004523 78 92 4.0 10.0 0.00 0.03 0.02 70 1013.0
20260505004023 78 93 5.0 13.0 0.00 0.03 0.02 69 1012.7
20260505003502 78 86 4.0 13.0 0.00 0.03 0.02 69 1012.8
20260505003003 78 80 4.0 12.0 0.00 0.03 0.02 69 1012.7
20260505002502 79 83 3.0 7.0 0.00 0.03 0.02 69 1012.7
20260505002003 79 88 3.0 7.0 0.00 0.03 0.02 68 1012.7